EGKL weather

Deanland Lewes Airport
Lewes, England, United Kingdom

Public forecast

Using degrees Celsius for public forecast. Weather courtesy of forecast.io.

METAR (pilot weather report)

Closest report is Shoreham Airport, 17.4 nm (32.2 km) W. Retrieved 2018/09/24 08:50 UTC (18 minutes ago):

EGKA 240850Z 35006KT CAVOK 10/08 Q1037

TAF (pilot weather forecast)

Forecast is more than 12 hours old.

Closest forecast is Shoreham Airport, 17.4 nm (32.2 km) W. Retrieved 2016/03/02 12:00 UTC (3 years ago):

TAF EGKA 021104Z 0212/0221 25015G25KT 9999 SCT020 TEMPO 0212/0216 25025G38KT 5000 SHRA BKN012CB PROB30 TEMPO 0212/0215 2500 +SHGS +SHRASN TEMPO 0216/0221 29025G35KT TEMPO 0218/0221 BKN014